ATLAS 5 CENTAUR DEB, 45471

Orbit data source: Space-Track

ATLAS 5 CENTAUR DEB, 45471 is space debris in HEO originally from a launch on Wed, 17 Oct 2018 UTC launched from the Air Force Eastern Test Range (AFETR). Debris objects in space refer to the collection of defunct objects orbiting the Earth. Examples of debris include non-operational satellites, rocket bodies, and fragments generated from explosions, collisions, or faulty payload assembly.

Loading next visibility...
Identifier
45471, 2018-079BT
Orbit
HEO
Country
Flag of USUS
Related business
Flag of USUnited Launch Alliance/Lockheed Martin (US)
Manufacturer
ULA Decatur
Mission
Spacecraft
Bus & Motor
Unknown
Mass
Unknown
Launch date (UTC)
2018-10-17 (7 years ago)
Launch vehicle
Unknown
Launch site
Air Force Eastern Test Range (AFETR)
Object type
Payload
Rocket body
Debris
Shape & HBR
Unknown shape, 1.1 m
Radar Cross Section
RCS unknown

Expand to show TLE details & history
Last TLE update: 22 hours ago

TLE from 22 hours ago
0 ATLAS 5 CENTAUR DEB
1 45471U 18079BT  25340.25607126 -.00000096  00000-0  00000-0 0  9995
2 45471  13.1641  60.2433 4664525 261.6121  44.7367  1.77788984 39280
Epoch: 2025-12-06T06:08Z
TLE epoch observation values (Epoch: 2025-12-06T06:08:44.556Z)
Latitude
0.00001°
Longitude
-107.32013°
Altitude
17,814.565 km
Speed
4.371 km/s
True Right ascension
04h 00m 36s
True Declination
0° 00' 00"
Sunlit
Object was in daylight at epoch
Visualization orbit readout
Latitude
Unknown
Longitude
Unknown
Altitude
Unknown
Speed
Unknown
Apparent Right ascension
Unknown
Apparent Declination
Unknown
Sunlit
N/A
Visualization observer readout
Local Sidereal Time
01:44:44
Azimuth
Unknown
Elevation
Unknown
Doppler factor
Unknown
Orbital elements
Apogee altitude
35,833.381 km
Perigee altitude
8,979.912 km
Semi-major axis
28,784.784 km
Eccentricity
0.46645
Inclination
13.1641°
RAAN
60.2433°
Arg. of periapsis
261.6121°
True anomaly
98.32679°
Mean anomaly
44.7367°
Eccentric anomaly
69.82222°
Mean motion
0.44443 °/min
Orbital period
810.04 mins
BSTAR
0
Loading maneuver chart data...
Computing Atmospheric mass density...

Documentation

Showing up to 5 results
|